[[{"header":{"parameterUnit":"m.s-1","parameterCategory":1,"la1":30.2991,"la2":30.254,"lo1":-89.0895,"lo2":-89.0444,"dy":0.0017,"dx":0.0017,"nx":28,"ny":28,"refTime":"2024-06-24T03:00:00:Z","depth":0,"parameterNumber":2,"parameterNumberName":"U-component_of_WINDS"},"data":[0,0,0,0,0,0,0,0,0,0,0,0,0,0,0,0,0,0,0,0,0,0,0,0,0,0,0,0,0,0,0,0,0,0,0,0,0,0,0,0,0,0,0,0,0,0,0,0,0,0,0,0,0,0,0,0,0,0,3.4098,3.4099,0,3.4166,3.4167,3.4168,3.4098,3.4095,3.4092,3.409,3.4165,3.417,3.4174,0,0,0,0,0,0,0,0,0,0,0,0,0,3.3914,3.3918,3.4098,3.4099,3.41,3.4166,3.4167,3.4168,3.4098,3.4095,3.4092,3.4089,3.4164,3.4169,3.4175,0,0,0,0,0,0,0,0,0,0,0,0,0,3.399,3.3919,3.4098,3.4073,3.4071,3.4166,3.4167,3.4168,3.4099,3.4095,3.4091,3.4087,3.4162,3.4169,3.4176,3.43,0,0,3.4196,3.4199,0,0,0,0,0,0,0,0,3.3986,3.3997,3.4076,3.4075,3.4073,3.4119,3.413,3.4213,3.41,3.4089,3.409,3.4085,3.4154,3.4161,3.4183,3.4304,3.4307,3.4197,3.4201,3.4204,3.4206,0,0,0,0,0,0,0,3.398,3.3993,3.4125,3.4077,3.4076,3.406,3.4067,3.4145,3.4144,3.4089,3.4084,3.4093,3.4152,3.4177,3.4184,3.4308,3.4197,3.4203,3.4207,3.421,3.4537,3.4541,0,0,0,0,0,0,3.3977,3.3989,3.4123,3.4127,3.4018,3.4067,3.4074,3.4109,3.4143,3.4144,3.4097,3.409,3.4167,3.4176,3.4187,3.4336,3.4204,3.4211,3.4214,3.4532,3.4538,3.4543,0,0,0,0,0,0,3.3973,3.399,3.412,3.4057,3.4072,3.4075,3.4114,3.4112,3.4136,3.4148,3.4148,3.4121,3.4164,3.4177,3.4272,3.4338,3.4214,3.422,3.4527,3.4534,3.454,3.4636,0,0,0,0,0,0,3.3968,3.3989,3.4035,3.4058,3.4076,3.4203,3.4118,3.4117,3.4148,3.4139,3.4171,3.4172,3.4162,3.4263,3.4279,3.4345,3.4225,3.4521,3.453,3.4538,3.4627,3.4645,3.4661,0,0,0,0,0,3.3962,3.406,3.4037,3.4054,3.4133,3.4207,3.4217,3.4201,3.4153,3.42,3.4208,3.4171,3.4328,3.4273,3.4291,3.436,3.4517,3.4527,3.4537,3.4619,3.4641,3.466,0,0,0,0,0,0,3.4045,3.4062,3.4038,3.4145,3.4175,3.4195,3.4254,3.4225,3.4271,3.4261,3.4241,3.4249,3.4351,3.4365,3.4303,3.4483,3.4415,3.4429,3.4471,3.4492,3.4509,3.4504,3.4231,0,0,0,0,0,3.4075,3.4132,3.4145,3.4239,3.4255,3.4252,3.4284,3.4269,3.43,3.4313,3.4327,3.4361,3.4417,3.4455,3.4508,3.4628,3.4635,3.4685,3.4701,3.4715,3.4729,3.4796,3.4818,3.4576,3.4576,3.4576,0,0,3.414,3.4156,3.4193,3.4256,3.4277,3.4339,3.4263,3.4331,3.4378,3.4324,3.4415,3.4427,3.4463,3.4572,3.462,3.4586,3.4797,3.4728,3.4739,3.4745,3.4809,3.4831,3.4852,3.4583,3.4582,3.4581,0,0,3.4288,3.4305,3.4386,3.4409,3.4442,3.444,3.4459,3.4484,3.449,3.458,3.4541,3.4597,3.4694,3.4722,3.4749,3.491,3.4879,3.4928,3.5017,3.5082,3.5101,3.5118,3.5178,3.5199,3.494,3.4941,3.4941,0,3.4365,3.4454,3.4432,3.4503,3.4533,3.4485,3.4569,3.4592,3.4642,3.4665,3.4625,3.4747,3.4768,3.4884,3.4923,3.4946,3.497,3.4924,3.51,3.5117,3.5132,3.5189,3.5211,3.4947,3.4946,3.4945,3.4945,0,3.4547,3.461,3.4672,3.4719,3.4755,3.4832,3.4825,3.4865,3.4847,3.485,3.4944,3.4967,3.5024,3.505,3.5034,3.5165,3.5143,3.5102,3.5033,3.5161,3.5214,3.5235,3.4955,3.4953,3.4951,3.495,0,0,3.4751,3.4785,3.4808,3.483,3.4863,3.4912,3.4988,3.5042,3.5078,3.5114,3.5179,3.5263,3.5225,3.5256,3.5243,3.53,3.5428,3.5252,3.5253,3.5286,3.5577,3.5608,3.5634,3.5407,3.5411,3.5414,3.5574,0,3.4902,3.5031,3.5014,3.514,3.5199,3.5155,3.5221,3.525,3.5255,3.5307,3.5313,3.5374,3.5319,3.5337,3.5392,3.5401,3.5487,3.5389,3.547,3.5473,3.5464,3.5661,3.5694,3.5844,3.5595,3.5598,3.5601,0,3.5095,3.5137,3.5267,3.5293,3.5317,3.5376,3.5426,3.5476,3.5509,3.5508,3.5543,3.552,3.5598,3.5526,3.5636,3.557,3.5602,3.5612,3.5618,3.5626,3.5546,3.5677,3.5891,3.5914,3.5632,3.563,3.5628,0,3.5233,3.5322,3.5412,3.5431,3.5462,3.5506,3.5521,3.555,3.5584,3.5628,3.565,3.5704,3.5733,3.5776,3.5769,3.5717,3.5882,3.5809,3.5886,3.5887,3.5924,3.5922,3.6149,3.5942,3.5942,3.5941,3.5941,0,3.5405,3.5487,3.5474,3.553,3.5622,3.5602,3.5695,3.5705,3.5731,3.5789,3.5755,3.5811,3.5797,3.5854,3.5849,3.5942,3.5955,3.5959,3.5957,3.5963,3.5963,3.5985,3.5975,3.5947,3.5946,3.5945,3.5944,0,3.5575,3.5569,3.5665,3.5686,3.5693,3.576,3.578,3.5834,3.5835,3.591,3.5927,3.5931,3.5996,3.5992,3.6066,3.6063,3.6178,3.6163,3.6167,3.6164,3.6242,3.6236,3.6493,3.6526,3.6296,3.6298,3.63,0,3.5685,3.5747,3.5775,3.5811,3.5829,3.5887,3.5922,3.5906,3.5944,3.5987,3.6036,3.6097,3.6146,3.6252,3.6263,3.632,3.6307,3.6394,3.6316,3.6321,3.6311,3.6308,3.6316,3.6409,3.6412,3.6414,3.6416,0,3.5883,3.5877,3.5927,3.5977,3.6019,3.6058,3.6094,3.6126,3.6114,3.6159,3.6224,3.6261,3.6336,3.6399,3.6453,3.6471,3.6444,3.644,3.6461,3.6469,3.6469,3.6472,3.621,3.6435,3.6433,3.6431,3.643,3.643,3.6028,3.6082,3.611,3.6168,3.6193,3.6227,3.6279,3.6286,3.634,3.6398,3.6386,3.646,3.6493,3.6563,3.6587,3.6646,3.6616,3.6646,3.6654,3.6662,3.6672,3.6458,3.6656,3.6655,3.6655,3.6654,3.6654,0,3.6226,3.6242,3.6295,3.6345,3.6391,3.6358,3.6396,3.6437,3.6502,3.6534,3.6582,3.6658,3.6719,3.6734,3.6793,3.6838,3.6826,3.6854,3.6851,3.6857,3.6695,3.6671,3.6862,3.6862,3.6862,3.6862,3.6862,3.6862,3.6334,3.6424,3.6422,3.6525,3.6541,3.6611,3.6636,3.6668,3.6694,3.678,3.6829,3.6838,3.6865,3.6925,3.698,3.6983,3.7008,3.7041,3.704,3.6889,3.6868,3.6848,3.6826,3.7046,3.7046,3.7197,3.7198,3.7199]},{"header":{"parameterUnit":"m.s-1","parameterCategory":1,"la1":30.2991,"la2":30.254,"lo1":-89.0895,"lo2":-89.0444,"dy":0.0017,"dx":0.0017,"nx":28,"ny":28,"refTime":"2024-06-24T03:00:00:Z","depth":0,"parameterNumber":3,"parameterNumberName":"V-component_of_WINDS"},"data":[0,0,0,0,0,0,0,0,0,0,0,0,0,0,0,0,0,0,0,0,0,0,0,0,0,0,0,0,0,0,0,0,0,0,0,0,0,0,0,0,0,0,0,0,0,0,0,0,0,0,0,0,0,0,0,0,0,0,-0.2725,-0.2726,0,-0.2769,-0.2769,-0.277,-0.2804,-0.2804,-0.2805,-0.2805,-0.285,-0.2851,-0.2852,0,0,0,0,0,0,0,0,0,0,0,0,0,-0.2674,-0.2674,-0.2725,-0.2726,-0.2726,-0.2768,-0.2769,-0.277,-0.2804,-0.2804,-0.2805,-0.2805,-0.285,-0.2851,-0.2852,0,0,0,0,0,0,0,0,0,0,0,0,0,-0.2704,-0.2675,-0.2725,-0.2748,-0.2751,-0.2768,-0.2769,-0.277,-0.2804,-0.2804,-0.2805,-0.2805,-0.2849,-0.285,-0.2852,-0.285,0,0,-0.2856,-0.2856,0,0,0,0,0,0,0,0,-0.2703,-0.2706,-0.2744,-0.2747,-0.275,-0.2781,-0.2767,-0.2797,-0.2804,-0.2784,-0.2805,-0.2806,-0.2827,-0.283,-0.2837,-0.2852,-0.2854,-0.2856,-0.2857,-0.2857,-0.2858,0,0,0,0,0,0,0,-0.27,-0.2705,-0.2742,-0.2745,-0.2748,-0.2757,-0.2762,-0.2773,-0.2802,-0.2786,-0.2788,-0.2793,-0.2828,-0.2836,-0.2838,-0.2854,-0.2856,-0.2857,-0.2858,-0.2858,-0.2871,-0.2871,0,0,0,0,0,0,-0.2694,-0.2702,-0.2741,-0.2744,-0.2727,-0.2758,-0.2763,-0.2771,-0.2802,-0.2807,-0.2792,-0.2794,-0.2833,-0.2837,-0.284,-0.2841,-0.2857,-0.2858,-0.2859,-0.2872,-0.2871,-0.2871,0,0,0,0,0,0,-0.2693,-0.2698,-0.2739,-0.2724,-0.273,-0.2758,-0.2766,-0.2771,-0.2779,-0.2807,-0.2812,-0.2794,-0.2834,-0.2838,-0.2847,-0.2843,-0.2859,-0.286,-0.2872,-0.2872,-0.2871,-0.2841,0,0,0,0,0,0,-0.2692,-0.2697,-0.2696,-0.2724,-0.2731,-0.2745,-0.2766,-0.2772,-0.2781,-0.2784,-0.281,-0.2815,-0.2834,-0.2845,-0.2849,-0.2845,-0.2861,-0.2873,-0.2872,-0.2871,-0.2843,-0.284,-0.2837,0,0,0,0,0,-0.269,-0.2686,-0.2696,-0.27,-0.273,-0.2745,-0.2749,-0.2771,-0.278,-0.278,-0.2798,-0.2814,-0.2842,-0.2846,-0.285,-0.2846,-0.2873,-0.2872,-0.2871,-0.2844,-0.284,-0.2837,0,0,0,0,0,0,-0.2657,-0.269,-0.2701,-0.2706,-0.2722,-0.2751,-0.2751,-0.2766,-0.278,-0.2782,-0.2809,-0.2815,-0.2822,-0.2835,-0.2838,-0.2847,-0.286,-0.286,-0.2838,-0.2834,-0.2832,-0.2828,-0.2862,0,0,0,0,0,-0.265,-0.2659,-0.2687,-0.2689,-0.2697,-0.2722,-0.273,-0.2745,-0.2764,-0.2771,-0.279,-0.2807,-0.282,-0.2828,-0.2841,-0.2845,-0.2852,-0.2845,-0.2842,-0.2839,-0.2839,-0.2843,-0.284,-0.2868,-0.2868,-0.2868,0,0,-0.2636,-0.2655,-0.2659,-0.2683,-0.2697,-0.2707,-0.2728,-0.2737,-0.2744,-0.2772,-0.2782,-0.2797,-0.2818,-0.2825,-0.2829,-0.2836,-0.2833,-0.2838,-0.2836,-0.2837,-0.2842,-0.2839,-0.2837,-0.2867,-0.2867,-0.2867,0,0,-0.2616,-0.2631,-0.2634,-0.2649,-0.2671,-0.2688,-0.2689,-0.2715,-0.2726,-0.2737,-0.2758,-0.2768,-0.2789,-0.2804,-0.2814,-0.2801,-0.2816,-0.2804,-0.2789,-0.2793,-0.2791,-0.2789,-0.2785,-0.2783,-0.2804,-0.2804,-0.2804,0,-0.2596,-0.2611,-0.2634,-0.2642,-0.2652,-0.2678,-0.2682,-0.2695,-0.272,-0.2727,-0.2735,-0.2763,-0.2779,-0.279,-0.2787,-0.2794,-0.2797,-0.2801,-0.2789,-0.2787,-0.2786,-0.2783,-0.2781,-0.2802,-0.2802,-0.2802,-0.2803,0,-0.2586,-0.2596,-0.2596,-0.262,-0.263,-0.2636,-0.2661,-0.2669,-0.2684,-0.27,-0.2711,-0.2732,-0.275,-0.2754,-0.2768,-0.2768,-0.2772,-0.2784,-0.2798,-0.2782,-0.2779,-0.2778,-0.28,-0.28,-0.2801,-0.2801,0,0,-0.2545,-0.2583,-0.2583,-0.2594,-0.2621,-0.263,-0.2637,-0.2655,-0.2662,-0.2679,-0.2686,-0.2704,-0.2716,-0.2728,-0.2744,-0.2748,-0.2737,-0.276,-0.2761,-0.2756,-0.2739,-0.273,-0.2728,-0.2748,-0.2748,-0.2748,-0.2737,0,-0.253,-0.2545,-0.2567,-0.2574,-0.2585,-0.261,-0.2617,-0.2634,-0.265,-0.2662,-0.268,-0.2692,-0.2707,-0.2714,-0.2718,-0.2737,-0.2734,-0.2738,-0.2756,-0.2756,-0.275,-0.2726,-0.2717,-0.2706,-0.2736,-0.2736,-0.2736,0,-0.2514,-0.2529,-0.2538,-0.2565,-0.257,-0.2576,-0.2595,-0.2606,-0.2626,-0.2638,-0.2651,-0.267,-0.268,-0.2692,-0.2708,-0.271,-0.2719,-0.2729,-0.2729,-0.2732,-0.2745,-0.2729,-0.2703,-0.2702,-0.2735,-0.2735,-0.2735,0,-0.2485,-0.2508,-0.2517,-0.2526,-0.2557,-0.2561,-0.2574,-0.2595,-0.2605,-0.2622,-0.2629,-0.2647,-0.2657,-0.267,-0.2693,-0.27,-0.2706,-0.272,-0.2717,-0.2717,-0.2717,-0.2717,-0.2693,-0.2722,-0.2722,-0.2722,-0.2722,0,-0.2465,-0.247,-0.2504,-0.2509,-0.2516,-0.2541,-0.2547,-0.2563,-0.2582,-0.2591,-0.2614,-0.2622,-0.2652,-0.2664,-0.2682,-0.2693,-0.2697,-0.2707,-0.2712,-0.2705,-0.2704,-0.2712,-0.2713,-0.2722,-0.2722,-0.2722,-0.2722,0,-0.2434,-0.2457,-0.2468,-0.2497,-0.2504,-0.2508,-0.2533,-0.254,-0.2558,-0.2569,-0.2574,-0.2601,-0.2617,-0.2641,-0.2664,-0.2676,-0.2684,-0.2692,-0.2677,-0.268,-0.2676,-0.2676,-0.2656,-0.2655,-0.2684,-0.2683,-0.2683,0,-0.242,-0.2425,-0.2454,-0.2462,-0.2475,-0.2487,-0.2498,-0.2523,-0.2533,-0.2558,-0.2562,-0.2579,-0.2595,-0.2619,-0.2641,-0.2659,-0.2668,-0.266,-0.2671,-0.2665,-0.2669,-0.2669,-0.267,-0.2657,-0.2657,-0.2656,-0.2656,0,-0.2394,-0.2406,-0.2419,-0.2438,-0.2449,-0.2465,-0.2482,-0.2487,-0.2516,-0.2527,-0.2543,-0.2555,-0.2579,-0.2596,-0.2618,-0.2632,-0.2649,-0.2652,-0.2653,-0.2646,-0.2638,-0.2643,-0.2671,-0.2653,-0.2653,-0.2653,-0.2654,-0.2654,-0.2372,-0.2377,-0.2399,-0.2414,-0.243,-0.2445,-0.2453,-0.2472,-0.2486,-0.2507,-0.2522,-0.2537,-0.2559,-0.259,-0.2604,-0.2617,-0.2624,-0.2624,-0.2625,-0.2624,-0.2622,-0.2635,-0.2621,-0.2621,-0.2621,-0.2621,-0.2621,0,-0.2348,-0.2363,-0.2377,-0.24,-0.2412,-0.2427,-0.2447,-0.2456,-0.2469,-0.2488,-0.2503,-0.2523,-0.254,-0.2564,-0.2584,-0.259,-0.2598,-0.2594,-0.2594,-0.2598,-0.2614,-0.2613,-0.2587,-0.2587,-0.2587,-0.2587,-0.2587,-0.2587,-0.2337,-0.2347,-0.2361,-0.238,-0.2395,-0.2411,-0.2421,-0.2436,-0.2451,-0.2472,-0.2486,-0.2502,-0.2523,-0.2545,-0.2562,-0.2569,-0.2575,-0.2569,-0.2578,-0.2593,-0.2596,-0.2599,-0.2598,-0.257,-0.257,-0.256,-0.256,-0.256]}]]